Buffalo, SD

4:29 PM MST on February 09, 2016 (GMT -0700)
Buffalo

Weather History for K2WX - December, 2012

Change the Weather History Date:

Wednesday, December 12, 2012

  Actual Average Record
Temperature  
Mean Temperature 31 °F 21 °F  
Max Temperature 39 °F 31 °F 63 °F (2014)
Min Temperature 23 °F 11 °F -14 °F (2000)
Degree Days  
Heating Degree Days 34 44  
Month to date heating degree days 411 511  
Since 1 July heating degree days 2111 2409  
Cooling Degree Days 0 0  
Month to date cooling degree days 0 0  
Year to date cooling degree days 853 513  
Moisture  
Dew Point 25 °F    
Average Humidity 81    
Maximum Humidity 100    
Minimum Humidity 61    
Precipitation  
Precipitation 0.00 in 0.00 in 0.02 in (2010)
Month to date precipitation 0.09 0.07  
Year to date precipitation 8.37 14.30  
Sea Level Pressure  
Sea Level Pressure 29.66 in    
Wind  
Wind Speed 7 mph (ENE)    
Max Wind Speed 17 mph    
Max Gust Speed 22 mph    
T = Trace of Precipitation, MM = Missing Value Source: NWS Daily Summary

Daily Weather History Graph

Daily Weather History Graph

Search for Another Location

Airport or City:

Trip Planner

Search our weather history database for the weather conditions in past years. The results will help you decide how hot, cold, wet, or windy it might be!

Date:

Astronomy

Dec. 12, 2012 Rise Set
Actual Time 7:25 AM MST 4:10 PM MST
Civil Twilight 6:51 AM MST 4:44 PM MST
Nautical Twilight 6:13 AM MST 5:22 PM MST
Astronomical Twilight 5:37 AM MST 5:58 PM MST
Moon 6:31 AM MST (12/12) 3:50 PM MST (12/12)
Length of Visible Light 9h 53m
Length of Day
8h 44m
Waning Crescent, 0% of the Moon is Illuminated
Dec 12
Waning Crescent
Dec 13
New
Dec 19
First Quarter
Dec 28
Full
Jan 4
Last Quarter

Hourly Weather History & Observations

Time (MST) Temp. Windchill Dew Point Humidity Pressure Visibility Wind Dir Wind Speed Gust Speed Precip Events Conditions
12:56 AM 34.0 °F 28.0 °F 21.9 °F 61% 29.57 in - West 6.9 mph - N/A   Unknown
1:56 AM 33.1 °F 26.1 °F 21.9 °F 64% 29.57 in - West 8.1 mph - N/A   Unknown
2:56 AM 32.0 °F - 21.9 °F 66% 29.59 in - Calm Calm - N/A   Unknown
3:56 AM 30.0 °F 25.2 °F 21.0 °F 69% 29.58 in - SE 4.6 mph - N/A   Unknown
4:56 AM 30.9 °F - 21.9 °F 69% 29.60 in - Calm Calm - N/A   Unknown
5:56 AM 32.0 °F - 23.0 °F 69% 29.61 in - Calm Calm - N/A   Unknown
6:56 AM 30.9 °F - 21.9 °F 69% 29.63 in - Calm Calm - N/A   Unknown
7:56 AM 28.9 °F 23.9 °F 21.9 °F 75% 29.65 in - West 4.6 mph - N/A   Unknown
8:56 AM 32.0 °F 27.5 °F 23.0 °F 69% 29.65 in - NNW 4.6 mph - N/A   Unknown
9:56 AM 30.9 °F 24.3 °F 24.1 °F 76% 29.66 in - SE 6.9 mph - N/A   Unknown
10:56 AM 35.1 °F 32.2 °F 24.1 °F 64% 29.64 in - East 3.5 mph - N/A   Unknown
11:56 AM 37.9 °F 32.7 °F 27.0 °F 65% 29.61 in - ENE 6.9 mph - N/A   Unknown
12:56 PM 39.0 °F 32.3 °F 28.0 °F 65% 29.60 in - ENE 10.4 mph - N/A   Unknown
1:56 PM 37.9 °F 34.4 °F 28.9 °F 70% 29.62 in - ESE 4.6 mph - N/A   Unknown
2:56 PM 37.0 °F 30.4 °F 28.9 °F 73% 29.63 in - East 9.2 mph - N/A   Unknown
3:56 PM 35.1 °F 26.9 °F 28.0 °F 76% 29.65 in - ENE 11.5 mph - N/A   Unknown
4:56 PM 34.0 °F 25.5 °F 28.0 °F 79% 29.67 in - ENE 11.5 mph - N/A   Unknown
5:56 PM 33.1 °F 22.2 °F 28.0 °F 82% 29.67 in - East 17.3 mph - N/A   Unknown
6:56 PM 30.9 °F 21.7 °F 28.0 °F 89% 29.71 in - NE 11.5 mph - N/A   Unknown
7:56 PM 30.9 °F 21.7 °F 28.0 °F 89% 29.74 in - ENE 11.5 mph - N/A   Unknown
8:56 PM 28.9 °F 19.2 °F 27.0 °F 92% 29.78 in - NE 11.5 mph - N/A   Unknown
9:56 PM 27.0 °F 16.7 °F 26.1 °F 96% 29.81 in - ENE 11.5 mph - N/A   Unknown
10:56 PM 26.1 °F 16.2 °F 24.1 °F 92% 29.82 in - ENE 10.4 mph - N/A   Unknown
11:56 PM 27.0 °F 20.5 °F 27.0 °F 100% 29.84 in - East 5.8 mph - N/A   Unknown